Theta_e
302 303 303 303 303 303 304 304 304 303 303 300 298 301 295 294 290 304 306 309 303 294 286 290 288 286 289 293 292 294 292 291 293 291 293 291 294 292 291 292 291 293 293 291 290 292 289 291 290 293 293 294 296 298 299 300 300 299 298 299 301 305 294 291 292 295 297 299 300 300 300 300 297 297 299 297 294 295 295 294 297 292 294 291 291 288 296
302 303 303 303 303 303 303 303 303 303 303 301 300 297 294 295 295 298 305 307 303 289 283 284 286 288 291 291 290 294 292 291 291 291 293 292 292 289 292 294 296 293 294 292 290 294 287 292 293 292 295 293 299 299 299 301 298 298 297 295 301 291 296 293 288 288 290 293 296 295 298 298 296 295 297 298 298 299 299 299 300 291 294 293 290 285 293
302 302 302 303 303 303 303 303 303 303 303 303 301 293 296 295 298 298 300 302 299 286 290 286 286 287 286 286 286 289 291 294 294 293 292 296 293 292 293 295 296 294 295 293 294 294 293 290 295 295 295 295 299 299 299 301 299 301 303 307 302 296 294 293 286 283 281 281 282 284 288 292 296 297 297 298 297 299 296 291 293 288 294 295 291 290 301
301 301 302 302 303 303 303 303 303 303 303 303 300 298 295 293 285 293 295 296 295 292 295 290 287 286 285 284 286 286 285 294 296 297 295 296 297 297 296 297 297 293 293 292 292 292 296 293 292 293 293 296 297 299 300 300 301 304 309 307 302 296 299 296 293 290 288 290 293 297 296 295 292 295 296 296 298 299 299 297 292 290 293 292 295 295 299
301 302 302 302 302 302 303 303 302 303 303 303 300 299 297 296 288 288 286 294 293 290 293 288 288 285 289 284 287 285 289 293 296 298 292 296 297 296 297 295 292 292 292 291 291 293 293 295 294 294 294 296 298 300 300 300 302 313 305 307 301 297 293 296 297 295 295 296 296 297 296 294 295 295 295 297 296 297 298 292 291 298 294 289 297 303 302
300 301 301 302 302 302 303 303 303 302 303 303 302 295 297 288 291 293 295 288 286 288 289 292 287 289 288 287 288 287 291 292 290 295 296 298 298 293 295 296 296 293 292 293 289 292 292 293 291 295 295 295 297 296 299 298 305 302 300 303 300 296 290 296 297 296 297 297 297 298 296 296 296 296 297 296 296 297 296 299 297 299 291 290 300 302 300
300 301 301 301 301 302 302 303 303 303 302 302 302 293 296 295 293 293 296 288 292 292 292 294 292 291 291 287 288 288 292 292 293 293 293 296 295 297 288 292 294 294 295 294 291 292 288 288 295 295 294 295 294 293 295 298 302 300 300 300 304 298 293 296 297 295 297 299 299 298 296 296 296 295 297 297 298 297 297 297 299 299 298 299 300 304 303
300 300 300 301 301 301 302 302 302 302 302 304 301 298 292 290 289 289 294 293 291 293 296 296 294 291 294 287 289 290 293 292 295 296 294 290 295 298 294 293 296 297 295 294 292 294 295 295 291 297 296 295 296 294 295 295 299 299 298 299 302 296 291 296 297 294 294 298 298 298 298 297 295 296 297 297 298 297 297 298 300 301 299 301 301 299 299
300 300 300 300 301 302 302 302 302 302 302 300 298 298 300 298 298 296 289 287 291 294 295 295 294 291 294 291 292 291 293 293 296 295 298 297 295 297 296 295 298 300 297 295 297 302 297 298 299 299 298 292 297 295 295 299 296 298 298 299 301 298 292 298 296 290 292 296 296 297 298 297 296 295 296 296 297 296 298 295 300 298 297 300 301 296 297
299 299 300 300 301 301 301 301 302 302 302 299 298 295 302 302 303 298 293 286 292 290 295 296 295 289 295 295 295 293 293 295 296 290 298 300 299 300 296 299 299 297 297 298 301 303 302 302 301 301 300 301 300 300 299 299 297 296 297 300 296 297 295 291 291 289 289 296 296 296 296 295 291 292 296 297 299 299 300 300 301 302 303 296 292 295 302
299 299 299 300 300 301 301 301 302 302 301 297 295 295 299 298 296 297 296 287 291 294 294 295 293 296 297 298 296 298 297 298 297 292 291 299 300 302 302 300 298 296 299 302 305 306 306 307 304 303 301 301 300 300 300 300 300 299 298 297 297 298 297 293 296 288 289 295 296 296 291 284 287 302 307 302 299 298 297 298 300 303 303 300 302 302 307
299 299 299 299 300 300 301 301 301 302 301 300 300 298 301 303 301 299 292 288 288 295 294 292 294 297 296 299 298 296 296 297 297 301 296 298 300 302 303 301 300 292 303 308 307 306 307 306 303 302 301 300 300 300 299 299 299 300 300 298 296 296 295 293 295 289 289 293 294 288 283 286 304 306 308 306 304 301 299 300 301 302 302 302 301 302 305
298 299 299 299 300 300 300 301 301 301 302 302 300 297 302 305 301 298 295 291 288 292 291 293 298 299 299 299 298 297 298 299 301 301 301 300 300 301 301 302 300 301 308 306 306 304 299 298 298 298 297 298 298 299 299 299 298 299 300 300 298 293 293 293 292 292 292 290 289 282 284 299 302 305 305 310 307 304 303 300 301 302 302 302 301 303 304
298 298 299 299 299 300 300 301 301 301 302 302 299 299 301 303 300 298 296 289 288 294 295 295 298 298 298 298 298 298 300 299 301 302 299 302 301 302 304 303 305 307 307 307 304 301 296 296 291 293 293 296 295 293 296 298 299 299 299 300 301 299 297 295 290 295 287 289 288 287 295 297 301 298 302 303 299 300 298 291 297 305 305 303 302 303 304
299 298 298 299 299 299 300 300 301 301 301 301 301 301 302 304 304 300 299 296 288 292 295 291 295 297 298 299 300 298 297 297 298 298 302 303 301 305 305 306 308 308 309 303 299 300 295 294 289 288 290 289 285 287 295 293 298 301 301 300 300 300 295 296 291 288 292 288 287 288 288 285 291 301 305 308 308 307 307 301 296 307 305 306 305 303 304
299 298 298 299 299 299 300 300 300 301 301 301 301 301 302 304 306 304 300 295 292 286 294 299 301 299 297 299 300 298 295 293 297 298 299 300 302 304 306 308 309 309 306 303 301 296 292 289 288 288 285 287 292 290 287 293 292 297 302 303 299 300 300 298 293 289 289 288 286 286 284 288 297 301 305 308 307 307 308 299 293 303 306 306 306 304 306
299 299 298 299 299 299 299 300 300 300 301 301 299 299 300 306 305 302 299 297 295 290 299 301 303 302 299 298 300 298 301 294 299 293 292 296 300 302 304 307 310 309 304 300 299 294 291 290 293 290 292 295 290 288 294 292 289 291 297 299 297 296 295 292 290 288 289 288 286 286 289 290 297 303 305 307 309 310 302 287 288 303 306 307 307 306 306
299 298 299 298 299 299 299 300 300 300 300 301 300 299 300 307 308 305 301 297 293 294 301 304 301 299 298 299 298 302 305 303 302 304 299 301 300 301 301 303 301 305 306 297 297 292 290 290 288 288 288 296 296 295 286 292 289 289 290 293 291 291 291 292 289 289 289 288 288 290 292 299 304 305 307 308 313 305 290 286 293 310 313 307 307 306 308
299 299 299 299 298 299 299 300 300 300 300 301 300 300 302 306 306 306 302 298 296 291 300 303 304 303 304 305 304 303 303 302 302 296 297 295 299 304 304 303 306 295 305 296 298 292 289 290 297 293 291 293 298 288 295 290 289 294 294 290 292 291 291 291 291 289 288 289 287 288 292 302 307 307 306 309 304 291 289 303 311 312 310 308 307 307 309
299 299 299 299 299 299 299 299 300 300 300 301 300 296 299 304 306 307 301 296 297 294 298 300 304 302 305 300 300 299 301 302 301 299 298 294 303 304 301 295 302 304 300 301 292 296 291 289 293 297 292 292 294 300 293 293 297 293 293 295 291 291 288 288 288 290 291 290 287 286 283 296 311 308 304 306 294 295 306 310 312 314 311 309 310 310 310
299 299 299 298 299 299 299 299 300 300 300 300 300 297 297 305 308 308 307 302 297 292 296 305 305 304 305 305 306 305 304 300 301 298 301 303 305 301 290 291 297 299 294 297 291 292 295 291 296 294 299 294 297 296 289 290 293 299 297 295 294 298 289 289 290 295 287 287 286 287 298 304 311 306 296 303 307 311 316 312 308 312 313 315 316 315 316
299 299 299 298 299 299 299 299 300 300 300 300 300 299 296 302 305 306 308 306 299 295 299 304 306 306 307 309 310 311 308 306 307 308 304 300 308 302 302 303 302 302 303 305 298 295 300 298 299 293 292 294 300 292 296 290 288 296 302 299 288 299 294 299 292 297 291 291 296 303 309 310 312 311 308 312 314 316 314 314 312 311 310 315 315 315 317
299 299 299 299 299 299 299 299 299 299 300 300 300 298 295 298 301 306 306 300 305 306 308 307 308 309 311 312 314 314 312 312 312 312 310 304 300 304 305 302 303 307 308 307 302 300 301 300 292 299 296 297 293 293 295 295 291 294 292 299 298 303 306 308 302 298 303 304 307 308 308 310 311 313 314 312 313 316 316 313 311 312 313 314 315 317 316
299 299 299 299 299 298 299 299 299 299 299 300 300 298 297 299 301 302 304 304 302 297 302 307 304 299 302 302 306 313 312 310 311 312 314 313 301 299 307 306 307 309 308 307 310 302 303 299 300 302 293 299 300 293 289 290 291 298 297 295 299 303 304 302 296 300 296 291 303 304 306 309 309 311 313 314 314 314 315 315 314 314 315 316 317 317 318
299 298 298 298 298 298 299 299 299 299 299 300 300 300 301 300 304 304 301 294 296 296 292 297 300 305 308 309 309 308 308 309 311 314 314 314 310 304 302 307 310 306 305 308 312 307 302 295 300 298 291 300 302 292 298 294 294 302 293 297 297 299 308 301 300 299 293 293 302 304 307 309 310 310 309 309 312 313 315 316 316 316 317 317 318 318 317
299 299 298 298 298 298 299 299 299 299 299 300 300 298 297 298 303 305 304 304 304 302 294 293 300 308 308 307 306 307 309 309 309 309 309 309 309 311 309 311 311 314 311 311 309 302 299 298 298 297 296 294 306 295 296 298 299 303 298 297 302 303 305 295 300 297 300 302 305 307 308 307 307 308 309 312 312 312 313 314 314 315 315 316 317 318 317
299 298 298 298 298 298 299 299 299 299 299 299 299 299 299 300 304 303 303 304 299 294 297 293 299 303 306 305 309 310 309 308 308 307 307 309 309 310 311 310 309 309 309 309 309 302 300 298 297 296 300 298 304 302 303 301 300 294 296 304 306 303 298 301 299 294 294 297 302 304 297 293 305 307 311 312 313 313 312 313 313 314 314 314 315 316 317
299 299 298 298 298 298 299 299 299 299 299 299 300 300 302 301 304 307 309 308 303 294 294 294 296 301 307 305 309 308 308 307 307 306 306 307 308 308 308 308 309 308 308 306 298 299 298 296 296 298 296 304 300 297 305 304 304 299 298 301 305 303 303 301 297 295 294 303 306 307 306 306 310 311 312 313 314 313 311 312 312 314 314 315 315 314 314
299 299 299 298 298 298 299 299 299 299 299 299 299 300 303 306 307 308 310 311 308 302 298 298 302 301 296 302 307 306 308 309 307 307 306 306 306 307 307 308 307 307 309 304 300 299 298 298 298 298 300 306 302 297 300 293 293 291 299 305 306 308 308 306 307 306 305 307 308 309 308 306 309 311 312 312 314 313 312 313 314 314 314 315 316 315 313
300 299 299 298 298 299 299 299 299 299 299 299 298 299 298 302 310 310 310 311 309 305 296 293 290 294 306 306 306 305 305 305 305 306 304 305 306 306 306 307 308 309 308 302 300 296 298 298 297 307 308 312 302 299 295 297 296 298 305 306 306 307 307 309 310 306 306 309 310 310 311 311 312 312 312 312 312 313 312 312 313 314 315 316 315 314 315
300 300 299 298 299 299 299 299 299 299 299 298 297 291 292 292 302 308 305 309 308 303 297 297 293 299 299 307 307 304 304 303 304 304 304 305 304 304 307 307 306 307 302 301 300 299 299 297 297 301 305 306 300 297 297 296 293 297 302 305 305 306 307 308 310 310 311 310 310 310 310 310 311 309 310 311 310 312 314 314 313 312 314 314 314 313 313
300 300 299 298 299 299 299 299 299 299 298 296 294 295 298 300 302 305 304 304 304 300 295 293 293 294 294 298 304 307 303 303 303 303 304 305 304 307 306 305 305 308 301 299 299 299 298 298 295 301 302 305 300 296 298 296 292 296 304 305 306 307 308 308 308 309 309 310 308 307 306 308 309 309 307 311 311 313 313 313 313 314 312 313 315 314 314
300 299 299 299 299 299 299 299 299 299 298 299 301 301 301 301 301 301 302 303 301 298 302 296 291 293 291 298 303 304 305 304 303 304 302 306 302 304 300 306 305 304 305 298 296 295 302 298 297 295 303 306 295 295 296 294 298 303 306 306 306 307 308 308 308 308 309 309 309 305 304 306 308 310 310 311 311 312 312 311 312 312 312 311 312 311 311
299 299 299 299 299 299 299 299 299 299 300 298 295 298 304 303 303 302 305 303 299 300 298 293 290 291 292 302 296 303 304 298 299 302 295 304 305 301 298 303 305 296 301 297 300 298 300 296 296 296 301 296 300 294 289 294 299 302 304 305 306 306 307 307 307 307 308 308 309 309 309 309 309 309 309 309 309 311 311 312 310 309 309 309 310 310 310
299 299 299 299 299 299 299 299 299 298 297 299 299 305 304 303 303 306 306 303 296 293 294 294 295 291 290 292 291 298 305 300 298 300 294 299 304 299 301 296 296 293 297 305 296 295 295 297 302 294 292 300 294 290 290 295 299 303 304 304 305 305 305 303 305 307 308 308 308 308 309 308 307 307 307 307 308 308 309 309 310 309 308 308 309 309 309
299 299 299 299 299 299 299 301 300 298 298 299 303 304 301 303 302 308 309 308 303 298 295 294 294 292 291 288 289 296 304 298 302 302 299 295 298 301 299 296 292 296 302 295 292 299 293 301 296 290 294 292 290 293 296 299 299 300 301 302 305 305 305 306 307 307 308 309 309 307 307 307 306 306 306 307 307 307 308 308 308 308 307 308 308 309 309
298 299 299 299 300 300 299 299 305 303 303 303 303 305 304 303 307 308 307 304 306 307 299 294 292 293 295 293 295 295 300 291 300 297 301 294 293 295 295 293 291 293 292 292 292 292 297 302 294 289 290 290 292 299 299 299 298 298 299 303 306 307 307 307 308 308 307 307 307 307 306 305 306 306 304 305 306 306 306 305 306 306 306 307 307 307 308
298 299 298 297 299 294 294 295 302 303 304 303 303 302 302 299 293 297 298 296 301 303 297 298 291 295 298 295 290 302 299 295 300 293 294 296 292 291 293 291 292 291 287 290 294 301 294 291 290 289 289 297 299 299 300 300 300 302 301 302 304 307 307 307 307 305 304 303 303 304 303 304 303 305 304 304 305 304 305 306 306 307 307 307 307 308 307
297 297 298 300 297 292 294 300 305 304 303 304 303 295 293 297 292 290 292 296 295 295 298 297 293 297 296 295 296 304 299 294 294 296 291 297 291 289 293 288 291 292 288 288 293 300 289 290 291 290 289 294 295 300 301 302 301 302 304 304 307 308 307 307 307 305 304 303 304 305 304 302 302 303 304 303 305 305 305 305 305 306 306 307 307 307 307
299 296 292 292 292 294 300 304 303 302 302 296 297 293 289 294 289 286 293 291 291 293 298 293 299 298 298 295 295 296 304 298 292 292 293 295 299 290 291 291 292 288 284 286 290 298 289 286 290 289 288 294 297 301 301 300 302 304 305 306 307 308 307 306 307 307 306 306 306 306 305 306 306 305 304 305 304 304 304 304 305 305 306 305 305 306 306
295 294 293 290 294 297 299 301 302 301 296 292 292 291 289 287 291 292 291 289 290 292 298 297 299 297 299 300 299 294 304 306 304 302 298 292 299 297 290 287 292 287 285 285 291 292 290 287 288 287 290 296 298 299 302 302 302 303 306 308 308 307 306 307 305 307 306 305 305 305 305 305 305 305 305 305 305 304 304 304 303 304 304 305 304 305 306
295 293 294 297 297 299 299 299 297 292 292 294 289 286 288 288 292 291 291 287 288 292 297 298 293 297 297 299 299 300 299 305 303 297 294 290 294 291 289 291 291 286 284 290 295 290 288 285 285 287 294 298 299 300 301 301 302 304 306 307 306 307 307 306 306 306 306 305 305 305 305 305 306 306 305 305 304 304 304 303 303 304 304 305 305 305 306
297 298 298 295 295 293 295 290 293 291 286 286 285 284 287 284 287 287 289 292 298 295 296 304 302 304 305 305 301 302 299 306 297 293 292 290 294 293 289 288 288 284 288 295 289 287 286 285 285 290 297 297 299 300 300 302 303 305 307 307 307 306 307 306 305 305 306 305 305 305 305 305 305 305 306 305 305 304 304 304 304 304 305 304 305 304 304
297 297 293 292 290 290 292 281 291 288 286 287 284 280 284 283 286 288 287 291 295 294 299 296 298 298 293 300 297 295 297 299 297 295 293 295 292 288 288 285 285 292 296 289 287 284 286 288 291 293 296 298 299 299 301 303 304 306 306 305 306 305 306 305 305 304 304 305 305 305 305 305 305 305 305 305 305 304 304 304 304 304 304 304 303 303 304
291 289 289 288 286 290 287 281 290 286 281 284 287 286 286 283 286 289 289 295 297 295 299 300 300 297 293 300 298 299 296 293 296 291 288 291 289 290 287 286 291 291 287 285 286 287 287 286 292 294 296 297 298 300 302 303 304 304 306 305 305 305 305 304 304 304 304 304 304 304 304 304 304 304 304 304 305 305 304 303 304 303 304 303 303 302 302
288 286 286 283 281 287 286 283 286 283 286 288 287 290 289 290 291 291 297 299 297 298 297 299 298 298 297 298 293 293 295 294 292 290 292 292 287 285 291 294 292 286 285 286 284 283 285 289 294 296 298 298 299 300 302 303 304 305 305 304 304 304 304 304 304 304 304 304 304 304 304 304 304 304 303 304 304 305 305 304 305 304 304 303 301 301 301
288 289 287 287 283 286 289 283 285 287 290 290 291 293 293 293 296 297 299 299 297 300 300 301 303 299 296 295 294 294 295 295 290 292 293 288 287 289 293 288 284 285 282 282 283 285 287 292 296 298 299 299 299 301 301 303 303 304 305 306 305 305 305 304 304 304 304 304 304 304 304 304 304 304 304 304 304 305 304 304 305 305 304 302 301 302 302
283 288 289 282 281 285 283 286 291 292 294 294 295 296 296 297 296 295 298 300 300 300 298 299 295 297 295 300 298 293 293 294 290 291 292 290 291 288 286 285 285 286 287 285 285 289 291 295 298 299 300 300 299 300 301 303 304 305 305 305 305 305 304 304 304 304 304 303 303 304 304 304 304 304 303 303 303 304 305 305 305 305 305 304 302 302 302
288 286 284 284 286 287 287 290 290 288 291 294 295 295 295 295 294 296 299 299 298 298 301 298 294 294 290 294 292 291 289 293 287 288 291 289 286 283 283 282 283 282 287 289 290 292 295 298 299 300 301 300 301 301 302 303 305 305 305 305 305 305 305 304 304 304 304 304 304 304 303 303 304 304 304 303 303 303 305 305 305 304 304 303 302 301 301
286 284 286 284 284 287 290 291 289 287 290 292 293 293 294 294 294 295 298 297 299 298 299 298 296 292 292 291 288 289 289 292 290 290 288 286 286 287 285 282 284 285 288 293 293 295 297 298 300 300 301 301 300 301 302 304 303 303 305 306 306 306 305 305 304 304 304 304 304 304 304 304 303 303 303 303 303 304 304 305 305 304 304 303 302 302 300
288 285 285 290 285 285 288 284 285 285 288 290 291 292 294 293 294 294 298 298 297 296 293 291 292 291 290 288 288 285 287 293 289 288 288 287 290 287 285 284 287 291 294 297 298 299 300 300 300 300 301 301 301 303 304 305 304 305 306 306 306 306 305 304 304 304 304 304 304 299 303 303 303 304 304 305 304 303 303 303 304 304 304 303 302 302 301
284 282 283 286 289 288 288 288 289 289 291 292 292 294 295 293 296 297 299 297 295 291 290 292 291 289 287 286 288 291 292 290 287 288 286 289 291 288 288 289 292 294 297 297 298 299 299 301 301 300 302 301 302 303 304 305 305 305 305 306 306 305 304 304 304 304 304 304 304 304 304 304 305 305 304 304 304 303 302 302 303 304 303 303 303 302 302
Wind_Speed
23 23 24 24 24 24 24 24 24 23 23 12 11 9 6 4 5 2 4 4 5 4 5 6 5 7 8 9 12 10 8 7 7 8 6 7 8 8 9 9 8 12 10 14 14 15 11 15 12 13 17 15 16 18 26 22 21 18 11 13 12 7 4 9 11 14 14 14 15 19 18 14 15 15 13 11 13 15 10 8 5 6 8 7 4 4 1
23 24 24 24 24 24 25 25 25 23 20 13 12 9 7 7 7 1 1 1 3 2 5 6 6 6 8 10 13 10 8 8 8 7 6 5 4 4 7 8 12 8 12 11 13 15 7 15 12 13 14 12 18 23 25 21 15 14 10 8 9 5 6 9 9 8 11 13 14 17 17 13 11 11 12 11 13 19 10 10 9 6 10 12 7 6 3
23 24 24 24 24 24 24 25 26 23 22 18 9 7 6 7 6 4 3 3 4 3 4 4 7 8 8 8 10 8 4 7 11 10 9 7 10 6 6 7 6 10 14 13 12 15 9 9 12 11 10 10 19 24 25 23 15 14 15 10 13 5 8 8 9 12 13 14 16 17 17 15 10 14 15 16 14 12 11 6 7 5 7 16 7 3 8
23 24 24 24 24 24 25 24 22 22 22 22 9 6 5 4 5 1 4 5 5 7 7 7 6 9 7 7 5 2 3 4 7 9 8 9 8 5 7 7 9 14 17 13 10 15 8 6 8 10 8 12 14 20 24 21 17 16 12 10 9 4 6 10 10 12 12 11 11 11 11 11 13 15 18 18 16 14 13 8 5 6 6 6 9 3 9
23 22 24 24 24 24 24 24 22 23 24 22 10 6 3 4 2 4 4 3 7 8 5 4 4 3 2 4 3 4 4 5 3 7 4 1 4 4 4 7 7 11 11 6 12 11 11 10 11 12 11 9 11 23 20 18 12 15 15 12 7 5 6 10 11 12 12 14 13 14 17 16 15 15 18 17 18 16 12 6 6 6 7 8 4 15 9
23 23 24 24 24 24 25 25 24 25 25 25 8 5 6 3 2 5 3 5 5 7 4 6 5 8 2 4 2 6 5 3 1 3 6 4 5 4 4 11 13 9 10 9 5 11 10 12 8 12 10 12 12 10 11 12 7 14 13 12 6 7 5 9 11 12 12 17 18 14 14 14 15 13 12 15 17 17 14 8 12 12 7 6 10 12 8
22 23 23 24 25 24 24 24 24 26 28 23 5 4 3 1 4 5 7 6 7 9 15 13 12 13 7 3 3 4 5 5 3 2 3 7 6 6 3 11 10 13 11 8 8 11 7 6 10 9 11 10 13 11 14 17 14 15 10 11 4 4 7 9 11 10 10 5 8 12 16 12 15 17 16 15 14 14 13 11 12 12 8 9 4 12 8
22 23 23 23 23 24 25 25 24 24 28 18 6 4 3 5 5 5 7 8 13 12 8 8 10 8 6 3 2 3 4 5 2 2 1 1 3 2 8 9 12 17 7 7 9 8 5 7 7 12 11 12 11 11 11 10 11 12 12 11 9 6 3 10 11 8 4 7 7 9 10 18 15 14 14 14 13 13 15 13 10 7 9 7 5 2 5
22 22 23 23 23 24 23 24 23 22 23 9 8 6 4 5 3 5 8 12 7 10 8 8 8 4 5 3 2 3 4 3 3 1 3 3 3 3 6 5 13 16 7 6 9 13 1 6 6 7 11 9 11 8 10 13 12 14 8 6 8 6 4 7 8 4 6 5 7 14 11 17 15 16 16 16 15 12 10 10 8 8 8 9 10 9 4
21 21 22 23 22 23 23 22 23 21 20 8 7 6 7 7 2 4 3 6 8 11 10 9 6 4 2 3 4 1 1 1 2 2 3 5 7 6 3 8 8 5 10 12 11 9 10 10 3 7 9 9 9 9 11 14 14 12 9 7 7 7 6 4 4 5 5 7 7 8 5 5 10 9 14 16 14 10 7 10 9 8 6 7 4 5 5
20 21 22 23 22 22 22 22 21 21 14 10 8 8 9 10 10 5 3 7 9 9 10 7 8 7 13 13 8 2 4 1 2 0 0 3 4 3 6 8 5 6 6 7 7 6 8 9 3 9 9 9 11 9 8 8 10 12 10 8 7 9 8 5 7 5 4 8 9 5 2 4 6 1 7 9 12 13 14 10 8 7 6 5 6 5 3
20 20 21 22 22 22 22 22 21 19 15 10 9 9 8 9 8 6 4 7 10 12 11 9 10 6 7 9 7 6 6 7 6 6 4 3 3 3 6 6 2 3 5 7 7 7 6 9 6 8 10 8 10 11 14 13 13 12 10 9 7 9 6 4 7 4 4 9 7 6 8 7 3 7 6 7 9 14 16 12 13 11 11 11 11 11 8
19 20 20 21 21 22 21 22 21 20 18 13 10 9 9 10 7 7 7 8 9 12 11 14 15 13 11 11 8 5 8 7 6 5 2 3 4 3 3 4 1 3 6 5 7 5 6 3 5 9 12 11 11 11 10 11 14 16 12 13 8 5 5 3 4 5 4 6 7 6 5 2 0 3 7 5 7 8 7 12 14 14 15 12 11 11 11
19 19 20 21 21 21 21 21 21 20 20 16 11 9 10 10 10 9 7 6 10 11 12 13 13 15 16 13 6 4 3 6 6 4 2 3 5 6 4 5 5 7 6 4 5 6 3 5 3 6 10 8 10 11 12 11 12 15 15 13 9 10 9 5 4 6 4 5 7 3 6 3 4 3 4 5 7 9 6 3 10 12 12 15 14 14 11
18 19 19 20 21 21 21 21 21 21 20 19 11 9 8 9 8 8 7 6 9 13 11 7 14 17 16 11 13 5 3 5 8 3 2 2 3 4 5 4 5 5 4 4 3 5 4 3 4 4 4 5 6 7 11 10 11 11 11 13 11 12 9 4 4 3 3 7 6 4 2 4 5 9 5 4 5 6 6 6 6 4 10 13 15 12 10
18 19 20 20 21 21 21 20 20 21 20 21 11 10 9 9 9 8 7 7 8 9 6 11 15 16 12 10 11 6 3 3 6 6 6 3 3 5 5 4 4 5 5 6 6 4 3 3 4 4 5 6 9 8 7 9 9 10 9 9 14 10 8 5 4 2 5 4 4 4 5 2 3 8 6 4 2 5 3 5 9 6 9 6 5 10 9
17 18 19 20 20 21 21 20 20 20 20 20 12 10 9 11 8 7 8 7 5 10 19 18 14 12 10 11 12 9 6 3 6 4 2 4 6 3 1 6 4 5 6 6 5 4 4 4 5 3 4 5 5 1 5 9 9 10 14 13 15 14 9 5 4 4 4 4 3 3 1 3 5 10 7 6 7 5 7 7 7 6 10 9 10 11 11
17 18 18 20 20 21 21 20 20 20 20 19 13 10 11 10 7 8 8 8 8 8 8 11 15 10 10 10 11 11 4 2 2 2 2 2 6 5 1 5 6 4 2 4 4 2 4 4 5 5 4 5 1 2 4 5 7 7 11 4 5 6 5 4 6 7 5 5 5 2 1 2 6 10 9 8 4 6 6 7 1 6 7 12 13 12 10
17 17 17 18 20 21 21 21 20 20 20 20 14 12 7 8 10 9 7 7 6 7 15 20 16 12 11 11 8 8 8 8 4 1 5 2 5 12 7 3 7 2 6 3 6 3 3 3 5 2 3 2 3 4 3 4 4 5 7 8 7 6 4 6 5 6 6 5 5 6 1 5 6 6 9 9 6 5 3 1 5 6 5 10 14 13 9
17 17 18 18 19 20 21 20 20 20 19 20 14 9 12 14 12 7 4 9 8 12 17 17 12 16 12 11 10 10 11 9 9 8 6 6 8 14 3 6 4 1 3 4 4 4 3 3 4 3 3 3 1 4 5 6 8 8 8 10 6 5 4 7 7 3 5 4 6 5 7 2 7 10 8 7 3 2 2 1 5 6 5 3 4 6 7
17 17 17 18 18 20 20 20 20 20 19 19 15 11 11 9 10 8 8 9 9 10 10 10 14 19 17 14 14 12 11 10 10 9 8 6 4 5 2 2 6 6 2 3 2 3 4 5 6 3 1 3 3 2 4 3 8 9 7 12 9 11 5 4 4 6 5 6 6 1 4 5 6 9 3 4 3 3 2 3 5 7 6 8 10 7 11
18 17 17 18 19 20 20 21 20 20 20 19 17 10 10 9 10 9 8 8 9 9 11 19 18 17 20 17 15 13 10 10 8 6 6 4 3 3 1 3 1 3 3 3 1 1 4 3 2 2 2 1 4 2 2 3 3 7 6 2 7 9 6 2 2 6 3 2 4 2 4 8 7 4 5 7 4 3 4 5 6 4 4 4 6 6 8
19 17 17 17 18 19 20 21 20 20 20 19 15 9 10 12 11 11 10 9 10 11 11 14 15 16 17 19 18 11 6 2 3 3 3 5 3 2 1 4 5 5 6 1 2 2 2 3 1 3 3 1 2 1 3 4 1 4 2 7 2 3 7 2 2 3 9 6 7 4 5 5 6 4 5 6 5 4 4 8 6 6 6 2 4 6 7
18 17 17 17 18 19 20 20 21 20 20 19 15 11 11 10 12 12 9 8 8 10 10 8 6 6 9 12 1 8 9 4 2 3 2 3 2 3 2 5 5 4 4 5 4 3 1 2 5 3 2 3 3 1 3 4 0 3 2 4 1 1 2 3 2 0 2 3 7 7 5 4 2 4 4 4 4 4 5 7 7 7 8 5 5 5 6
18 18 18 18 18 19 20 21 20 20 20 20 17 12 11 10 8 8 9 6 5 6 7 10 10 10 13 10 8 6 6 4 6 5 3 4 3 5 6 7 6 5 7 7 4 4 3 3 1 1 0 2 5 0 4 4 3 3 1 1 5 4 7 5 6 5 5 1 3 2 7 7 5 2 2 3 4 4 5 5 6 7 7 7 6 7 8
19 18 17 18 19 20 20 20 20 20 19 21 19 12 10 11 10 10 9 8 8 7 8 8 10 13 12 12 10 9 8 5 7 5 3 5 5 4 5 5 6 3 6 4 5 4 3 3 3 2 4 0 6 3 3 2 3 4 2 4 6 8 5 1 4 7 6 6 8 4 6 5 5 8 0 3 3 4 4 4 4 5 6 7 8 6 9
18 19 18 18 18 19 20 21 21 20 20 21 14 12 12 12 10 8 7 6 8 4 3 6 9 13 13 17 15 13 13 2 2 4 6 5 5 3 4 5 5 4 3 5 5 4 2 3 2 4 2 1 2 1 2 3 4 2 3 5 3 2 3 4 7 3 1 2 4 5 2 1 2 3 6 4 3 4 4 4 5 5 6 6 8 8 8
18 19 18 18 19 19 20 21 21 20 20 21 16 13 12 11 10 8 8 7 6 6 9 9 10 14 18 17 10 10 9 3 5 6 7 6 3 2 4 5 4 5 3 3 4 2 3 3 4 1 3 3 4 1 4 3 5 7 2 2 2 1 4 3 1 1 1 2 5 5 2 3 4 5 5 6 2 3 3 4 4 5 5 6 8 9 8
19 19 19 19 19 19 20 21 21 19 21 19 13 14 12 11 11 11 7 2 4 7 8 10 12 12 6 9 13 12 12 5 1 4 4 6 7 3 5 4 3 3 3 2 4 2 3 1 0 3 1 3 3 3 2 3 2 2 6 6 3 2 0 4 4 5 6 5 5 6 2 2 3 3 4 3 3 1 2 2 3 4 5 6 7 8 7
19 19 20 21 20 20 20 20 20 18 20 13 11 8 6 4 4 7 7 2 4 6 5 6 7 3 10 9 10 8 11 4 2 3 6 4 5 4 7 2 2 2 2 1 2 3 1 3 1 3 1 2 3 0 2 2 3 0 1 3 5 1 2 4 3 1 4 3 3 6 3 3 3 3 4 4 2 3 0 3 4 3 6 6 7 7 6
20 21 22 22 21 20 21 20 19 19 17 10 7 3 4 4 4 5 10 6 7 6 4 4 8 8 8 9 10 9 8 6 3 4 6 5 4 6 5 2 5 4 1 0 2 2 2 1 2 1 2 4 1 2 3 2 2 2 6 5 2 1 3 3 4 3 6 4 3 4 4 4 2 3 6 4 3 1 2 4 7 9 5 5 6 7 6
21 22 23 23 22 22 21 20 20 16 11 10 8 6 4 5 4 8 9 8 8 6 4 6 5 4 4 6 4 2 7 7 5 5 6 4 5 1 5 4 4 4 3 2 3 1 2 2 2 4 1 4 4 3 4 4 1 3 3 3 2 2 3 3 2 3 2 2 2 4 5 4 5 5 5 3 4 3 2 3 2 2 1 3 3 4 4
20 24 25 24 23 23 22 21 21 15 11 14 21 26 26 26 20 16 12 9 7 6 5 4 5 4 3 5 8 9 5 4 5 2 4 3 5 1 3 3 3 2 4 2 2 3 2 1 1 3 2 3 1 3 4 3 5 7 5 2 3 2 4 4 4 2 3 4 4 5 6 4 5 5 3 3 3 2 3 4 5 2 3 5 4 6 5
24 25 25 24 24 24 23 22 20 20 18 12 10 10 7 11 13 12 7 6 5 6 3 3 3 5 6 6 11 1 2 6 6 4 1 4 3 2 2 4 2 2 4 3 1 3 1 1 3 2 1 3 2 2 3 6 3 3 1 3 4 1 2 3 2 2 5 6 4 6 6 5 3 3 3 3 3 2 1 6 3 5 4 6 5 6 7
24 25 24 25 25 24 26 24 13 8 8 8 9 2 5 4 3 6 7 6 4 3 3 4 3 6 6 5 5 3 2 5 4 2 4 5 2 6 3 2 2 1 2 2 3 2 3 1 3 2 4 3 2 1 3 6 4 6 2 1 3 1 2 2 3 3 5 3 4 5 4 3 2 4 5 4 3 2 2 2 2 4 5 5 4 6 6
24 25 25 25 28 23 13 11 8 6 7 6 2 4 2 2 3 5 6 6 6 5 4 4 4 7 5 7 3 2 2 7 4 3 4 2 3 3 3 2 4 1 2 1 3 4 2 4 1 3 2 2 3 3 3 5 4 3 4 4 2 1 1 3 3 3 5 5 5 3 1 1 2 3 3 3 2 2 1 1 4 8 6 5 5 6 6
26 25 27 25 14 7 7 5 6 4 3 4 5 8 5 4 5 5 6 5 6 6 5 4 5 8 7 6 3 4 7 4 2 5 3 3 2 2 2 2 1 1 3 1 3 2 3 2 3 4 4 3 3 6 5 5 6 4 4 5 2 1 1 2 2 2 3 3 2 2 4 4 3 2 1 2 1 1 3 4 5 6 5 5 6 5 5
25 26 13 9 6 5 4 0 3 4 7 9 5 3 4 4 3 3 3 4 5 5 4 6 8 9 8 8 6 3 6 3 2 5 2 1 2 3 1 3 1 1 3 4 1 3 2 1 2 4 4 3 4 3 5 3 3 4 2 3 2 1 1 1 3 3 3 4 5 5 2 3 4 4 2 2 4 6 4 1 3 6 5 5 4 4 4
22 11 7 6 5 3 3 4 1 5 7 5 4 2 3 3 2 2 3 4 2 6 5 8 9 8 9 9 8 5 7 5 4 5 2 3 2 0 1 3 2 2 3 3 2 2 3 3 2 3 5 7 4 6 3 4 1 2 3 2 2 2 2 1 1 3 3 2 6 5 7 7 7 5 1 1 5 5 7 4 4 2 1 3 4 4 5
7 6 4 5 4 5 8 4 4 9 4 3 3 2 3 3 4 4 3 4 5 4 4 7 8 9 11 10 7 5 4 6 4 3 3 2 2 3 2 2 2 2 3 3 1 1 2 3 2 3 4 5 7 3 4 3 3 3 1 1 2 2 2 1 1 1 3 2 5 6 2 2 2 3 5 4 4 4 5 2 2 1 2 5 7 3 5
6 5 5 4 8 8 8 10 8 5 3 3 2 3 2 3 4 3 2 5 5 3 5 8 7 9 9 9 7 6 3 2 3 3 4 3 1 3 1 3 1 2 3 2 2 1 1 3 3 4 2 7 7 4 3 4 4 2 2 2 4 2 1 1 2 4 1 3 4 7 2 1 0 0 2 3 4 4 3 2 0 1 1 3 2 3 3
7 5 6 9 10 10 10 6 3 2 2 3 2 4 3 3 2 4 3 4 5 3 7 8 10 9 5 6 6 5 3 3 3 2 2 4 2 2 1 2 1 1 2 2 1 2 1 3 2 4 5 7 6 3 4 3 4 2 4 4 3 1 1 0 4 2 2 3 4 6 4 2 3 2 2 1 2 2 3 2 2 2 3 1 1 3 2
17 15 10 8 6 4 2 3 3 2 2 2 3 3 3 3 4 5 4 3 3 4 4 7 5 2 3 6 5 4 1 3 3 3 3 3 3 1 2 3 1 4 2 2 1 2 2 3 4 3 7 6 4 4 3 4 4 3 5 4 2 1 2 2 1 2 3 1 3 3 3 1 1 1 2 2 4 3 3 2 2 3 3 3 4 5 6
9 8 5 2 3 3 2 5 2 2 3 3 4 5 4 5 4 4 4 5 5 7 5 6 5 6 3 3 5 3 3 4 1 2 3 3 2 1 1 2 4 0 3 3 2 3 3 2 5 3 7 4 4 3 4 3 2 5 5 4 4 3 1 3 2 1 2 2 3 2 1 1 1 4 3 1 3 4 4 3 4 5 5 6 6 5 6
5 3 2 2 2 2 2 2 3 3 5 5 4 6 5 7 6 7 8 3 6 6 3 3 5 5 6 6 3 2 2 3 4 3 3 2 1 2 2 3 0 0 1 2 2 3 2 3 4 4 4 5 5 3 4 2 2 3 5 5 4 4 2 1 2 1 1 1 2 2 2 1 2 3 2 2 3 3 5 5 5 6 6 6 7 6 6
3 3 2 4 3 3 3 3 2 5 4 4 6 8 9 9 8 9 3 4 5 3 3 5 2 5 5 5 3 2 3 3 3 3 2 2 2 3 4 2 1 3 2 3 3 4 3 7 2 6 7 5 4 2 3 2 3 3 5 4 5 4 3 2 1 1 1 2 2 3 2 3 3 2 2 3 2 3 5 7 6 5 6 8 8 8 7
3 2 2 2 5 4 3 5 5 4 5 7 9 9 9 9 7 4 4 5 5 5 4 4 6 6 5 3 3 2 2 2 4 2 3 4 4 1 2 1 2 2 3 3 3 3 5 6 5 8 6 4 2 2 1 2 2 2 3 4 4 5 4 2 2 2 3 3 3 3 2 4 3 3 3 3 3 3 6 6 6 6 6 9 9 8 8
3 2 3 4 4 2 6 6 7 9 8 7 6 8 8 5 4 6 6 5 4 3 0 1 6 3 4 1 2 2 1 2 3 4 2 2 1 3 2 2 2 2 3 3 5 6 8 2 7 7 5 4 0 1 1 3 2 2 2 3 4 4 4 3 3 2 1 1 1 2 2 4 4 4 4 3 4 4 5 5 6 5 6 8 9 8 8
2 2 3 3 3 2 3 6 7 9 8 6 7 7 6 6 6 6 3 2 5 6 4 3 2 2 3 1 3 3 3 2 3 3 3 2 3 1 2 3 2 4 3 4 7 8 5 6 8 4 4 1 2 1 1 2 3 3 3 3 4 4 4 3 3 3 2 3 2 3 2 3 3 4 5 5 4 4 5 6 6 7 7 8 8 8 8
3 4 3 5 5 6 8 9 8 7 6 7 6 6 6 6 7 1 5 4 4 5 3 3 2 1 2 2 3 2 3 3 3 2 3 4 3 3 3 4 3 4 4 6 6 4 2 2 6 6 5 3 1 1 2 3 4 2 3 2 3 4 3 3 3 3 3 4 4 4 3 4 3 4 5 5 5 5 5 7 7 6 9 9 8 8 8
2 3 5 6 8 7 6 6 5 5 4 5 6 6 5 6 2 5 4 5 5 5 3 4 3 3 2 3 3 3 3 2 3 5 4 4 3 4 4 5 4 5 7 6 4 3 3 4 4 6 5 4 2 1 2 4 3 2 3 3 3 3 3 2 3 4 3 3 2 1 2 3 3 4 5 4 5 5 5 5 5 6 7 8 8 8 9
3 5 6 7 11 12 11 10 9 9 7 5 5 6 5 5 4 2 1 4 5 5 5 3 4 3 3 4 3 3 1 1 3 3 5 4 3 4 4 4 6 6 3 3 4 2 2 5 8 5 5 4 2 1 2 3 3 3 3 3 4 4 4 3 4 5 4 3 3 3 3 3 3 5 5 5 6 5 5 5 6 7 7 7 8 9 9
Wind_Direction
343 344 344 346 346 346 345 345 345 344 341 341 344 321 307 276 260 96 156 136 140 217 245 257 242 251 261 291 285 282 278 253 284 286 263 247 221 242 236 244 239 245 251 202 186 184 193 189 188 172 175 173 186 183 202 207 184 185 181 184 193 125 182 188 191 194 175 190 186 202 223 200 207 215 233 211 202 211 229 209 173 190 213 220 191 216 37
344 343 345 347 347 346 345 346 345 344 345 339 329 319 310 304 294 182 104 179 146 191 262 278 276 268 276 280 283 285 275 270 275 262 264 256 163 224 249 239 233 249 241 218 189 190 182 184 188 175 181 166 184 179 203 194 180 185 164 204 141 186 182 185 171 178 175 190 186 193 212 215 206 210 215 235 229 195 197 201 208 220 212 228 198 193 147
345 343 344 346 346 347 347 345 345 341 340 343 329 316 311 294 268 237 133 150 149 222 227 254 280 287 291 299 286 295 259 242 247 256 267 228 211 218 237 246 208 224 259 223 188 189 195 173 204 183 178 159 186 173 205 189 172 185 171 207 139 206 173 198 179 186 181 188 189 185 188 201 196 213 201 216 241 200 188 216 204 228 217 227 232 189 126
344 345 345 345 345 346 347 345 343 340 339 342 335 314 297 334 325 24 166 175 198 239 250 261 253 279 286 281 271 250 273 266 227 234 261 253 267 280 281 297 273 266 242 196 190 183 159 179 207 161 177 165 182 176 181 189 183 163 170 183 162 201 189 213 195 196 194 198 188 171 193 193 211 204 205 195 228 219 200 202 216 210 174 226 252 125 152
345 344 345 345 346 346 347 346 342 343 338 340 331 297 249 300 318 345 316 278 213 240 224 223 206 238 355 296 329 279 236 229 198 196 248 310 329 303 249 250 242 246 187 193 194 167 148 216 186 159 171 175 165 165 174 190 195 135 168 194 176 221 209 225 229 215 197 191 196 174 190 199 210 219 207 192 202 236 233 181 214 229 235 213 184 130 152
346 345 345 345 346 347 348 348 347 344 338 337 335 322 356 333 10 326 355 297 302 301 273 210 219 244 231 275 304 288 341 17 127 170 230 189 197 245 212 221 255 215 153 200 174 155 174 195 178 160 154 164 142 162 167 207 153 135 175 190 191 192 234 211 228 235 198 182 198 180 183 204 199 214 206 208 208 217 238 192 197 202 223 247 138 140 152
346 345 345 345 347 348 347 348 350 346 339 333 289 333 330 256 305 270 335 313 290 282 283 285 277 273 249 226 242 291 347 52 55 353 247 173 216 211 264 265 223 161 171 180 172 172 181 174 157 152 160 166 146 176 189 209 164 176 179 193 157 194 224 238 219 226 232 1 321 180 181 202 204 204 211 213 211 206 217 235 225 211 207 241 207 144 150
346 346 345 345 347 348 350 351 353 347 340 324 356 24 322 1 342 317 322 293 284 280 292 289 274 268 223 194 270 287 342 45 54 173 0 337 301 238 269 283 295 310 199 180 169 170 162 166 156 147 167 147 179 170 191 159 172 173 199 194 140 246 206 244 207 204 252 282 235 305 253 194 202 200 206 210 218 212 204 217 236 234 244 215 219 129 193
346 347 345 344 345 347 349 352 353 350 342 356 357 350 22 316 251 277 307 317 298 316 316 323 317 310 0 353 142 232 350 25 352 10 312 310 298 274 294 319 309 301 234 132 39 4 316 170 134 143 146 165 183 170 191 170 162 194 173 195 154 205 293 236 199 206 199 208 269 279 246 194 197 198 202 205 210 216 196 212 205 208 216 236 210 163 213
345 346 345 344 344 346 349 352 352 353 343 353 342 327 333 303 258 191 269 290 293 309 299 310 317 353 332 302 29 118 317 224 312 12 295 292 284 317 295 296 301 304 65 43 12 356 355 353 154 152 154 178 173 175 201 187 178 172 173 174 202 186 249 212 195 221 182 195 240 265 349 206 196 210 202 203 204 203 211 216 210 211 205 234 224 195 191
343 345 345 344 344 345 348 351 352 354 353 360 342 320 318 330 330 309 243 291 303 318 319 318 341 352 355 17 358 41 341 124 193 232 100 292 273 264 278 296 335 329 51 11 333 300 321 311 237 163 177 166 157 183 189 186 160 178 182 166 227 192 224 210 185 202 184 168 205 239 212 219 208 13 306 225 213 200 217 204 206 204 198 217 209 222 163
342 344 344 344 344 345 346 349 351 352 352 346 328 305 311 318 312 307 315 317 304 319 336 329 320 1 339 354 344 359 19 15 24 2 37 308 296 294 285 272 284 332 346 323 321 315 286 268 174 186 148 144 165 173 182 171 169 187 193 184 210 209 217 252 160 211 195 153 179 203 216 220 35 324 323 301 270 212 201 215 196 204 199 213 218 218 168
342 342 343 343 342 344 345 345 349 349 350 344 334 313 314 309 310 325 321 317 304 325 330 320 321 351 352 344 6 36 348 337 357 345 356 328 5 305 265 329 355 285 313 296 300 261 254 188 153 205 141 157 172 160 187 179 164 186 187 189 205 187 217 222 195 214 194 170 176 203 212 8 211 341 304 303 300 312 292 221 213 199 199 196 232 219 191
342 342 341 341 341 342 343 343 345 347 347 345 333 317 305 304 328 336 338 327 309 306 313 304 345 350 347 343 48 78 329 318 326 311 31 335 317 308 297 259 265 304 260 291 277 287 250 163 107 135 141 164 173 162 175 182 177 198 176 179 204 200 209 209 202 206 209 189 181 187 98 225 178 212 232 205 222 224 242 274 221 206 196 189 204 223 216
340 341 340 340 339 340 341 341 343 345 345 345 326 316 310 312 333 330 325 307 305 304 290 343 344 344 338 341 21 70 357 344 337 32 355 244 272 251 265 276 303 273 302 255 237 241 247 140 123 140 129 185 174 158 156 189 171 209 184 176 184 215 225 140 296 198 202 170 200 189 213 241 214 227 193 197 248 234 223 253 269 241 236 211 202 199 217
338 341 339 339 338 337 339 339 342 344 344 344 332 326 308 302 311 328 326 321 306 311 333 331 321 341 341 6 35 32 33 338 350 337 329 286 210 232 213 265 223 260 230 236 246 246 184 162 150 164 166 184 178 151 178 165 162 206 233 189 187 190 239 217 229 189 193 228 251 200 202 234 140 171 142 174 166 216 187 225 244 210 234 212 207 204 209
337 338 339 337 337 335 336 339 340 342 342 345 336 322 307 308 311 340 326 315 303 274 280 288 325 336 348 0 355 5 31 7 326 346 12 19 330 309 218 180 207 232 232 253 229 234 180 178 146 185 171 193 178 145 170 171 158 186 204 196 191 187 191 238 248 246 213 211 221 237 267 112 140 138 157 156 164 168 165 205 227 208 202 211 206 215 211
335 336 337 337 336 334 333 336 339 340 341 342 335 319 300 298 334 323 320 321 316 296 278 331 334 337 352 349 339 341 51 140 300 320 238 250 278 343 205 158 165 198 351 284 261 230 179 201 169 201 175 143 146 166 203 168 172 188 170 181 208 188 182 213 232 221 191 200 235 219 104 33 138 141 131 118 124 171 179 200 125 6 298 205 206 212 222
333 335 336 336 335 332 331 333 337 338 340 341 336 315 300 326 318 299 303 315 322 283 297 308 299 294 341 330 331 343 356 341 1 326 348 6 23 335 291 94 33 28 359 331 281 241 202 227 201 181 107 53 343 205 185 187 178 180 195 188 220 200 185 179 235 230 223 206 224 237 139 126 135 135 129 122 151 180 202 53 293 306 316 197 191 206 197
332 333 334 334 333 331 329 331 333 337 337 341 341 316 298 295 285 255 282 320 318 294 290 285 285 332 334 327 338 339 344 347 1 348 6 353 331 316 254 154 95 59 241 260 262 268 253 198 74 3 79 337 347 296 213 202 181 196 185 193 209 179 200 198 198 224 261 232 223 224 231 176 219 134 142 172 220 59 119 237 1 355 26 355 180 205 146
331 331 332 331 331 330 329 328 331 333 336 337 340 323 312 309 331 343 301 306 305 309 299 297 330 320 309 308 301 308 323 339 341 348 347 3 332 328 38 24 333 330 334 351 340 7 2 17 28 26 326 220 179 207 203 188 199 157 203 183 220 162 194 202 204 212 228 206 226 218 36 128 174 163 168 143 49 117 65 15 66 22 34 46 30 23 86
330 330 330 329 328 329 328 327 328 330 332 335 334 316 297 310 320 302 307 296 277 258 256 283 290 285 280 279 274 274 293 320 347 349 329 333 6 66 188 204 38 206 269 281 230 189 57 31 13 8 310 156 181 214 347 249 196 323 328 138 212 147 198 52 293 173 235 18 58 26 32 53 52 47 100 112 114 64 67 105 99 64 44 62 92 69 99
330 328 328 328 327 326 327 325 325 327 328 331 332 320 307 309 304 309 309 286 270 268 265 272 276 273 269 260 257 261 288 352 306 281 312 319 346 184 191 334 43 51 303 43 38 12 58 71 301 256 237 102 315 63 106 264 82 273 268 215 39 51 86 114 278 71 92 132 102 120 80 76 69 48 81 93 85 51 70 99 98 109 80 21 126 124 129
329 327 326 326 325 324 324 324 323 324 324 326 325 314 306 301 293 295 291 291 314 313 303 279 300 302 341 360 164 204 218 194 92 32 48 340 321 342 4 52 4 166 237 353 336 317 297 166 245 193 207 296 27 217 212 195 123 122 235 221 305 307 302 205 230 88 5 168 176 138 136 150 129 111 77 82 94 71 85 93 104 102 115 141 143 148 144
327 326 325 323 322 322 321 322 322 321 322 322 322 304 292 286 286 314 323 321 318 320 308 305 300 327 334 325 307 292 24 357 205 181 174 186 252 317 332 349 325 312 319 322 306 278 252 281 242 48 333 288 278 256 62 347 76 337 240 342 11 310 11 310 247 218 203 82 66 163 146 121 147 22 90 151 105 95 64 84 84 86 101 136 128 135 147
326 324 323 321 320 319 319 318 320 319 319 320 317 308 300 290 297 297 278 271 278 284 279 285 292 315 317 314 322 340 279 266 351 342 298 276 261 239 293 311 305 305 302 315 300 287 313 293 306 338 13 253 299 338 9 107 284 289 224 142 189 206 272 301 242 231 217 206 124 343 180 165 182 183 154 81 124 125 97 88 111 120 124 120 138 148 137
324 323 320 319 317 316 318 318 317 318 318 317 312 299 287 281 278 271 281 305 320 301 281 302 318 310 318 322 309 292 292 21 331 274 284 263 279 248 235 272 299 313 345 328 275 289 275 269 313 360 356 355 277 125 184 31 309 349 338 72 116 241 232 341 10 298 31 9 57 357 2 126 146 103 108 70 83 116 118 128 114 130 130 147 139 137 136
320 322 321 316 316 315 316 316 316 317 318 317 304 290 279 272 265 263 262 268 289 296 304 300 302 305 309 285 277 277 286 6 343 332 298 304 292 308 303 283 303 308 23 351 313 310 321 338 351 36 315 40 336 20 331 268 206 232 165 142 145 271 38 333 56 354 134 69 51 38 32 108 18 9 102 137 140 102 139 121 117 117 124 153 144 140 154
316 319 318 316 312 313 313 314 315 316 318 318 301 293 277 249 242 236 243 4 304 290 294 288 284 278 293 348 320 297 285 148 158 253 300 296 306 333 277 282 306 310 158 237 271 297 335 72 120 326 3 1 308 320 282 257 245 17 54 357 19 41 0 112 110 109 121 160 102 104 284 174 102 72 82 97 76 102 115 140 130 135 145 142 147 149 160
310 315 315 314 311 309 312 310 313 314 318 314 304 289 282 144 51 43 23 22 313 308 298 314 313 300 325 310 296 299 289 61 47 326 287 293 293 290 285 289 262 290 312 291 325 305 315 310 42 69 47 200 293 298 247 294 30 250 113 128 296 145 215 110 191 160 77 72 122 122 119 128 141 145 67 57 20 356 326 150 148 161 153 143 154 151 173
308 313 314 311 309 307 306 308 309 311 313 297 302 289 264 208 91 49 27 16 358 323 298 279 278 290 284 267 262 263 294 329 1 348 328 321 310 280 274 265 241 239 282 323 264 310 320 303 345 121 154 47 15 275 299 354 132 305 291 288 155 202 99 90 67 112 164 156 147 170 182 140 148 169 96 65 75 196 92 73 59 23 13 170 177 161 197
307 310 312 309 305 305 303 302 305 305 295 282 260 265 342 341 345 317 325 335 330 298 279 292 296 297 314 291 272 346 293 334 314 235 228 247 257 223 306 278 337 17 16 288 322 313 243 35 287 310 44 218 252 296 300 281 139 155 202 217 192 56 95 91 126 111 108 126 219 194 188 148 63 44 89 70 65 58 95 108 70 131 75 194 199 185 162
306 309 309 307 303 301 301 298 295 294 285 285 293 291 285 280 267 258 268 275 270 251 268 283 280 303 276 314 321 276 265 248 262 294 250 189 282 89 269 351 297 204 113 272 220 272 69 251 289 271 120 100 283 278 300 300 115 206 197 234 75 81 82 70 59 67 85 78 26 77 91 78 79 83 93 125 111 138 114 180 143 156 207 239 199 172 192
308 308 306 303 301 299 296 295 292 285 277 266 263 251 249 228 245 239 237 204 247 264 257 257 265 268 272 286 277 223 216 274 297 263 232 157 299 266 232 231 163 279 144 269 42 264 194 298 256 267 117 226 212 276 272 294 261 157 101 105 81 88 143 147 158 119 85 80 75 64 79 94 98 103 116 115 110 64 253 277 169 156 200 237 204 181 141
308 305 302 301 301 299 295 289 286 257 244 243 234 183 64 356 19 158 201 206 230 224 216 227 244 276 282 283 273 115 232 272 256 244 271 132 195 287 334 267 121 257 106 301 267 290 275 210 14 314 267 140 179 246 264 279 67 63 30 104 124 49 92 225 157 110 94 83 100 107 95 95 170 157 120 105 120 178 169 221 201 211 199 223 184 138 141
304 302 301 301 300 296 291 266 226 238 226 245 34 108 111 3 227 231 213 232 267 299 284 279 269 264 280 282 304 90 250 258 269 278 262 341 255 197 264 274 263 133 55 215 296 252 225 66 301 270 282 218 221 237 42 33 28 19 59 329 83 247 17 32 50 104 91 70 63 51 111 138 93 112 127 109 84 122 115 181 210 222 195 216 197 154 165
300 300 302 298 288 268 254 245 190 211 350 5 308 299 302 288 235 232 221 219 221 232 273 295 283 273 278 301 327 305 306 290 152 240 188 237 289 68 320 265 280 62 250 210 234 243 72 47 288 278 290 285 32 62 52 39 30 344 351 5 4 139 175 136 158 155 151 150 160 183 170 167 142 100 126 162 144 100 150 208 238 244 199 154 134 158 143
297 298 297 291 281 263 247 258 59 322 299 256 240 243 186 192 234 196 197 224 199 188 226 235 254 267 279 276 274 324 279 285 335 296 257 125 258 201 164 282 59 286 270 247 152 31 50 284 243 270 273 279 94 110 72 35 22 26 321 298 326 203 195 130 140 212 205 208 205 183 216 213 187 174 191 163 172 188 224 257 292 359 38 104 129 141 125
295 281 263 253 255 297 11 37 7 244 253 253 231 277 226 200 226 231 195 193 185 214 215 231 245 244 248 248 260 246 279 327 300 284 303 99 308 131 151 272 103 277 274 284 117 262 257 219 234 240 245 228 195 94 97 86 28 56 1 329 346 42 107 114 125 267 246 286 41 9 23 26 9 4 74 128 264 73 47 30 328 328 345 77 135 145 141
289 309 335 315 298 7 338 344 11 310 282 280 206 238 256 205 221 238 213 219 205 227 204 228 224 235 233 249 265 257 175 242 260 293 333 309 119 307 51 290 92 267 275 261 99 189 271 286 249 228 240 158 102 108 78 33 57 75 21 52 95 84 66 303 134 49 282 315 16 305 291 332 324 11 343 332 327 44 94 79 296 294 228 54 24 139 140
339 325 299 308 333 328 316 314 301 267 254 247 242 213 267 248 214 252 222 225 231 224 195 242 216 221 212 235 230 250 113 288 273 274 271 284 67 294 266 276 55 291 278 282 100 244 219 258 287 281 41 74 92 91 94 109 85 90 80 92 95 90 238 95 214 226 321 4 226 207 142 347 43 320 276 335 18 36 53 77 165 293 304 89 122 115 102
337 301 287 290 295 286 285 270 253 246 236 244 240 232 218 265 222 212 246 252 217 222 217 206 227 231 225 219 230 236 203 186 305 282 266 266 121 274 278 285 168 257 283 65 67 260 258 264 253 266 119 106 91 80 73 94 92 106 122 101 85 70 87 157 265 132 72 300 340 1 29 48 353 332 1 43 87 89 108 136 171 166 210 118 38 91 89
293 276 258 276 278 281 267 264 201 218 221 205 226 244 208 229 229 232 208 221 293 264 224 186 249 122 194 234 219 201 269 126 236 215 222 243 128 214 263 269 256 243 254 70 257 268 238 248 256 258 103 98 81 97 84 59 74 116 115 107 110 129 240 207 8 20 146 122 334 345 3 60 219 325 57 87 95 99 96 116 147 135 140 115 103 93 87
269 269 244 226 272 268 234 254 183 198 236 214 194 232 205 229 224 215 241 222 211 245 262 230 200 208 194 166 262 170 188 191 211 286 282 257 186 205 200 252 231 256 67 255 246 247 242 236 256 69 94 103 124 100 98 106 120 122 133 141 150 151 279 78 85 6 38 23 332 316 307 281 88 76 78 53 107 135 129 137 138 127 121 121 121 126 115
284 277 253 265 249 239 182 265 181 206 223 226 217 230 217 225 235 227 227 227 226 250 258 191 81 274 239 160 233 213 210 211 146 243 256 298 261 228 234 258 35 16 267 271 245 252 238 253 222 239 125 105 90 100 114 115 147 150 153 154 160 159 171 181 143 110 57 119 188 201 202 137 124 118 97 90 64 122 138 141 140 144 152 150 134 130 138
276 286 279 247 258 240 221 251 190 217 230 234 226 226 236 234 234 238 241 351 274 241 245 286 260 234 227 141 230 197 175 236 185 193 239 207 227 244 221 236 50 270 283 279 266 266 250 259 150 101 89 73 61 90 116 137 129 150 157 173 176 176 159 201 107 70 129 181 159 187 187 117 121 136 131 86 129 144 131 131 146 166 164 143 136 144 152
265 258 259 286 279 270 231 248 233 227 231 223 231 239 244 252 255 300 333 309 289 287 268 228 223 239 252 171 198 206 256 272 259 185 185 226 210 221 65 11 278 244 249 249 269 268 267 277 89 95 91 83 87 101 175 158 153 179 166 163 172 187 177 162 108 163 175 195 184 187 179 136 143 153 140 154 170 141 121 134 157 161 148 132 138 144 159
268 276 244 240 238 238 224 234 260 272 270 281 285 280 280 294 282 257 245 247 269 315 264 331 284 228 240 324 314 282 254 211 245 259 237 273 149 252 240 193 236 252 243 245 239 240 252 262 94 100 99 99 132 284 197 146 152 173 170 168 182 182 180 184 157 162 158 218 247 227 147 155 155 155 153 150 163 158 143 153 159 156 147 136 133 147 151
275 297 273 256 251 278 277 267 244 248 254 246 242 245 254 256 257 248 216 319 293 258 285 292 310 329 274 198 223 207 224 198 235 240 174 210 283 217 192 238 239 259 254 255 254 247 237 108 99 99 104 93 88 305 157 113 147 172 189 198 165 190 186 181 140 134 166 230 209 210 178 138 145 164 158 155 169 172 160 159 160 141 140 149 153 159 154
239 232 233 255 277 271 255 263 277 287 287 290 278 255 243 257 251 12 36 270 284 305 292 257 336 312 284 292 237 213 252 206 227 230 234 210 205 233 232 246 231 243 247 227 243 270 255 188 128 120 107 88 75 324 75 120 115 181 168 171 173 192 164 151 135 135 179 212 206 216 167 136 181 176 175 170 167 168 178 171 163 156 141 143 151 159 155
253 266 255 242 250 266 298 292 289 287 252 273 283 274 265 254 169 75 355 315 295 270 258 252 206 222 235 227 243 224 226 204 231 234 236 225 197 217 227 241 242 245 252 260 239 258 313 23 24 80 107 122 81 11 86 119 139 162 152 184 163 146 124 167 154 139 204 195 168 198 208 167 187 154 143 161 160 165 180 174 162 161 147 140 153 156 151
232 230 246 238 236 245 257 273 279 288 299 299 305 357 346 324 347 349 23 282 278 266 244 226 230 225 230 236 219 242 296 215 241 224 232 243 241 245 221 226 245 244 267 320 335 352 308 63 65 40 16 53 70 67 85 110 134 165 158 167 161 151 144 198 185 158 177 166 175 191 194 189 165 120 145 164 160 165 176 180 174 156 146 154 159 159 156